Tracking 17558 objects as of 9-February-2016
HD Live streaming from Space Station
objects crossing your sky now

ARIANE 44L+3 R/B

Track ARIANE 44L+3 R/B now!


NORAD ID: 23866
Int'l Code: 1996-030C
Perigee: 323.7 km
Apogee: 30,882.3 km
Inclination: 4.4 °
Period: 540.3 minutes
Semi major axis: 21974 km
RCS: 20.3809 m2 (large)
Launch date: May 16, 1996
Source: France (FR)
Launch site: FRENCH GUIANA (FRGUI)

Note: This is a ROCKET BODY
Your satellite tracking list
Your tracking list is empty





NASA's NSSDC Master Catalog

Two Line Element Set (TLE):
1 23866U 96030C   16039.29400742  .00001057  00000-0  58287-3 0  9996
2 23866   4.3676  54.5126 6953344 172.7665 28.6719  2.66525644177798
Source of the keplerian elements: AFSPC

N2YO: 1099